RH
77 82 85 85 86 82 81 81 84 86 86 82 78 77 81 86 93 88 79 80 70 64 66 70 70 70 68 68 68 67 67 67 68
49 62 76 84 84 81 81 81 80 85 86 82 81 82 84 89 94 90 85 83 69 67 66 69 68 69 70 69 68 69 69 69 70
52 55 65 69 72 81 80 83 82 86 83 82 86 85 88 86 94 90 90 78 73 69 69 70 72 71 72 69 68 70 69 69 70
53 54 55 57 71 74 85 82 82 86 86 86 88 90 90 94 92 84 90 80 74 68 70 71 72 70 70 71 69 70 70 70 71
54 56 59 57 59 70 81 84 83 82 85 88 90 92 93 94 94 90 88 74 70 67 70 70 69 70 71 72 72 72 72 72 71
58 60 62 60 60 58 64 74 84 85 86 88 92 94 94 96 94 90 87 80 72 69 74 73 71 71 72 73 74 73 73 73 72
57 64 60 60 59 62 61 61 67 86 90 89 95 93 88 97 91 90 88 83 72 69 74 78 76 72 75 74 74 74 74 74 74
65 68 65 69 62 64 67 70 78 85 90 91 94 94 96 95 95 90 91 84 77 67 74 79 80 79 78 74 75 75 75 75 75
70 71 72 71 70 78 87 91 84 83 81 90 92 96 93 96 95 93 95 87 80 71 72 78 81 82 78 74 76 79 80 78 80
76 75 75 74 74 74 79 87 86 84 82 82 86 87 86 93 94 93 95 93 85 78 75 77 77 78 78 78 80 81 82 81 82
80 81 78 78 75 74 77 83 88 87 89 86 84 88 91 83 90 94 96 95 91 84 78 76 77 76 74 76 83 84 84 84 84
81 86 84 78 75 77 79 83 88 90 84 88 86 86 93 92 89 89 94 96 95 90 81 79 78 79 76 72 78 84 86 86 86
82 87 88 83 84 83 83 85 89 92 92 90 90 92 95 96 94 87 88 93 90 92 89 79 76 77 78 72 73 79 85 88 88
86 91 92 90 91 92 89 84 91 91 91 89 89 91 95 95 88 93 92 89 95 92 92 92 84 80 79 74 72 75 80 86 87
92 95 94 93 76 78 88 96 91 92 92 83 82 91 95 96 97 96 94 96 96 96 96 98 95 96 87 80 77 76 77 82 83
95 97 95 83 79 75 75 84 97 92 92 96 91 91 92 95 89 98 99 96 98 98 98 99 99 97 94 94 92 83 77 77 82
87 96 96 88 84 85 80 87 94 96 92 90 95 94 93 94 93 98 99 99 95 98 96 96 96 97 97 98 97 90 81 81 78
93 92 93 92 87 91 89 94 94 95 95 93 89 94 98 95 95 97 98 95 94 95 95 95 95 96 98 96 97 97 93 89 82
92 91 88 92 91 88 90 84 95 96 97 96 94 93 94 94 92 94 97 96 91 94 95 96 95 94 96 96 97 96 93 90 90
90 94 91 91 92 92 90 88 91 92 96 97 97 98 99 97 96 92 97 95 97 95 95 95 94 92 96 97 94 90 88 89 89
Wind_Speed
14 13 13 11 11 12 12 13 13 12 12 14 14 12 11 9 5 5 6 7 13 13 11 9 9 10 10 10 10 10 8 8 7
14 14 14 15 14 14 14 14 14 11 11 15 15 13 11 6 5 5 5 5 15 14 12 11 11 11 11 11 11 10 10 9 8
15 15 15 16 17 17 16 15 15 13 12 16 16 13 11 7 6 6 5 8 17 15 14 13 13 12 12 12 11 11 10 9 8
15 15 15 17 17 15 16 14 15 15 14 15 16 14 12 7 5 7 4 10 16 17 15 15 15 14 13 12 12 11 11 10 10
14 15 16 17 16 16 15 14 15 16 16 16 15 14 13 9 7 6 5 12 14 20 17 17 17 16 15 14 13 12 12 11 11
8 11 15 17 18 18 18 18 17 14 14 15 14 13 6 7 7 6 12 16 17 21 19 19 18 18 17 16 15 15 14 13 12
8 9 14 16 16 17 19 19 18 15 5 5 10 7 9 6 8 7 16 19 19 19 19 20 19 19 17 17 17 16 16 15 14
4 4 5 5 9 5 8 9 6 8 8 8 6 7 8 6 7 10 15 21 22 22 21 21 21 20 19 19 19 18 17 17 16
4 4 5 4 4 6 4 3 6 6 7 8 10 8 8 6 6 9 15 19 23 24 22 22 23 22 22 21 20 18 17 17 16
4 4 4 4 4 4 5 4 5 6 6 6 8 10 10 10 7 7 14 20 22 23 23 24 24 24 24 23 21 19 19 18 17
4 4 5 5 4 4 4 5 5 5 5 6 8 9 6 8 10 9 7 17 21 23 24 24 26 26 25 24 22 20 20 20 19
5 4 4 5 5 6 5 5 4 4 5 6 6 7 8 5 7 9 7 6 17 21 24 26 28 26 25 25 22 21 21 19 18
5 4 4 5 5 5 4 4 5 4 4 5 6 5 6 5 5 7 7 8 8 11 20 21 27 26 23 24 23 21 19 19 19
4 3 4 5 5 5 5 7 3 5 6 6 5 5 5 5 5 7 7 8 8 7 10 13 20 20 23 23 23 20 18 17 18
4 4 5 4 7 8 8 8 7 5 6 6 7 6 5 4 5 6 5 5 10 10 9 3 4 3 14 23 21 21 18 16 15
4 3 4 4 6 10 11 9 8 5 3 3 4 4 5 3 4 4 3 2 5 7 6 4 3 3 4 4 8 16 17 13 12
4 5 4 5 5 7 9 9 6 4 2 3 3 4 4 1 3 1 1 4 4 5 7 11 11 7 8 13 6 1 5 7 7
3 5 4 5 4 5 8 8 9 6 4 5 3 3 2 2 2 4 3 3 5 5 5 5 6 8 8 8 11 14 11 6 2
4 4 5 5 4 5 5 7 7 7 6 4 2 3 3 3 3 2 3 5 5 5 4 5 6 6 5 11 10 9 6 11 11
4 4 5 5 3 5 5 7 8 5 5 5 3 2 1 1 1 2 2 3 3 4 4 5 5 5 4 3 8 12 9 10 7
Wind_Direction
321 318 310 293 274 269 268 267 275 257 244 222 222 222 216 216 212 205 224 237 216 210 205 198 190 184 182 179 179 173 175 169 165
313 313 311 305 292 270 262 259 263 264 241 227 225 223 214 207 221 218 226 214 206 201 196 201 199 191 190 188 187 185 184 181 176
317 312 311 305 298 293 273 266 256 253 244 235 230 222 213 209 218 224 217 228 217 203 195 198 199 201 199 198 196 194 193 190 188
353 340 330 330 304 285 284 269 266 260 251 239 231 223 210 204 216 227 212 229 231 217 202 201 204 205 207 205 204 203 200 197 195
350 351 341 344 345 326 306 292 269 259 253 249 233 229 219 215 219 225 221 225 234 227 209 204 206 207 207 207 209 210 209 207 205
346 349 352 356 351 352 349 332 307 262 255 251 242 233 230 215 220 225 231 233 238 229 211 205 207 210 210 210 210 211 213 214 213
352 346 352 352 349 350 346 342 344 328 256 246 245 239 231 217 226 226 226 235 235 237 227 204 204 211 213 213 215 215 215 216 218
350 346 348 343 350 345 344 342 340 329 322 291 247 235 225 223 224 229 224 236 238 238 238 208 202 206 210 216 217 218 219 219 218
347 343 333 335 325 327 326 320 317 320 317 304 290 247 240 229 224 230 224 233 239 237 237 214 206 206 208 214 218 219 219 222 222
323 321 319 316 315 309 311 313 311 311 306 301 296 287 259 248 240 230 221 225 236 237 232 218 214 212 214 215 216 217 219 220 222
333 326 325 315 308 298 292 293 294 295 294 301 301 292 274 265 255 246 230 223 229 238 231 226 221 217 216 217 217 220 219 219 221
319 314 318 313 306 302 302 297 294 293 295 286 288 295 278 265 259 250 243 229 236 241 237 230 225 218 216 219 221 215 219 223 225
331 328 320 316 310 310 310 298 298 289 281 285 281 275 270 257 261 270 246 230 230 233 244 234 223 220 218 224 224 220 214 218 222
338 345 315 313 323 326 315 317 283 301 295 285 276 272 265 258 265 255 261 254 229 230 237 242 223 213 230 224 236 230 224 215 219
349 324 313 314 347 341 328 313 304 268 273 289 285 266 262 264 256 256 266 220 213 219 221 250 260 223 235 234 230 232 227 222 225
344 322 320 338 353 342 330 322 302 299 276 294 300 269 256 257 290 238 225 264 151 157 138 107 90 118 83 0 271 251 242 234 242
347 337 329 342 341 331 332 328 318 281 275 263 278 327 333 323 353 271 107 152 119 120 134 126 128 134 100 78 13 333 172 108 84
352 346 338 328 335 333 329 322 328 322 309 240 200 331 313 315 11 0 41 48 120 96 98 128 129 135 126 122 117 122 123 116 108
337 344 338 328 327 327 325 321 319 321 321 322 225 210 221 294 327 2 28 53 73 76 81 80 73 62 69 67 59 66 90 116 127
323 319 331 327 322 312 315 329 331 336 323 347 318 331 224 187 98 314 349 38 61 78 79 88 81 90 60 89 99 100 79 70 49